Regional Weather Roundup
Issued by NWS

Home | Current Version | Previous Version | Graphics & Text | Print | Product List | Glossary On
Versions: 1 2 3 4 5 6 7 8 9 10 11 12 13 14 15 16 17 18 19 20 21 22 23 24 25 26 27 28 29 30 31 32 33 34 35 36 37 38 39 40 41 42 43 44 45 46 47 48 49
000
ASUS45 KBOI 012110
RWRID

IDAHO REGIONAL WEATHER ROUNDUP
NATIONAL WEATHER SERVICE BOISE ID
300 PM MDT TUE SEP 01 2015

NOTE: "FAIR" INDICATES FEW OR NO CLOUDS BELOW 12000 FEET
WITH NO SIGNIFICANT WEATHER AND/OR OBSTRUCTIONS TO VISIBILITY

IDZ012-014-012200-
SOUTHWEST IDAHO


CITY           SKY/WX    TMP DP  RH WIND       PRES   REMARKS
BOISE          MOSUNNY   83  41  22 NW7       29.85F
CALDWELL         N/A     82  45  26 NE3       29.85F
MOUNTAIN HOME  SUNNY     86  37  17 VRB1      29.84F
$$

IDZ016-017-012200-
SOUTHCENTRAL IDAHO


CITY           SKY/WX    TMP DP  RH WIND       PRES   REMARKS
BURLEY         SUNNY     85  36  17 N5        29.91F
JEROME         SUNNY     85  35  16 NW5       29.91F
TWIN FALLS     SUNNY     88  33  14 N9        29.91F
$$

IDZ019>023-012200-
SOUTHEAST IDAHO


CITY           SKY/WX    TMP DP  RH WIND       PRES   REMARKS
IDAHO FALLS    SUNNY     85  30  13 SW15G22   29.96F
POCATELLO      SUNNY     86  37  17 NW10      29.96F
REXBURG        SUNNY     82  32  16 SW13      29.97F
$$

IDZ006-010-011-018-031-032-012200-
CENTRAL IDAHO MOUNTAINS


CITY           SKY/WX    TMP DP  RH WIND       PRES   REMARKS
MCCALL         MOSUNNY   76  35  22 S17G26    29.95F
HAILEY         MOSUNNY   81  34  18 S15       30.00F
STANLEY          N/A     77  27  15 VRB3      30.04F
SALMON         SUNNY     82  41  23 NW8       29.82F
CHALLIS        MOSUNNY   83  31  15 CALM      29.89F HAZE
$$

IDZ002-004-006-007-026-012200-
NORTHERN IDAHO


CITY           SKY/WX    TMP DP  RH WIND       PRES   REMARKS
LEWISTON       SUNNY     79  38  22 CALM      29.80F
LOWELL           N/A     83  51  33 CALM      29.78F
COEUR D`ALENE  SUNNY     72  45  37 S15       29.84F
MULLAN PASS    SUNNY     61  33  35 VRB6      29.99S
$$


USA.gov is the U.S. government's official web portal to all federal, state and local government web resources and services.